Location: Huisseau
(47.5933°N, 1.4533°E)
Time: 01:34:45
(UTC+00:00)

Cosmos 1726 Rocket - Pass Details

Date: 08 August 2025
Orbit: 554 x 661 km, 82.5° (Epoch: 10 April)

Event Time Altitude Azimuth Distance (km) Brightness Sun altitude
Rises 20:18:22 0° 354° (N) 2,998 7.8 -9.6°
Reaches altitude 10° 20:20:43 10° 360° (N) 2,071 6.8 -9.9°
Maximum altitude 20:25:13 51° 76° (ENE) 811 3.9 -10.5°
Enters shadow 20:29:01 13° 151° (SSE) 1,794 5.4 -11.0°
